Location: A�t Bou Chrif
(32.7193°N, 5.2385°W)
Time: 03:30:07
(UTC+00:00)

CZ-4 R/B - Pass Details

Date: 08 August 2020
Orbit: 531 x 599 km, 97.7° (Epoch: 20 September)

Event Time Altitude Azimuth Distance (km) Brightness Sun altitude
Rises 20:04:35 0° 211° (SSW) 2,668 4.9 -10.9°
Reaches altitude 10° 20:07:52 10° 243° (WSW) 1,793 4.4 -11.5°
Maximum altitude 20:09:27 12° 267° (W) 1,667 4.7 -11.8°
Drops below altitude 10° 20:11:02 10° 291° (WNW) 1,810 5.5 -12.1°
Sets 20:14:25 0° 322° (NW) 2,725 6.2 -12.7°
